Regional Weather Roundup
Issued by NWS

Home | Current Version | Previous Version | Graphics & Text | Print | Product List | Glossary On
Versions: 1 2 3 4 5 6 7 8 9 10 11 12 13 14 15 16 17 18 19 20 21 22 23 24 25 26 27 28 29 30 31 32 33 34 35 36 37 38 39 40 41 42 43 44 45 46 47 48 49 50
762
ASUS43 KLOT 302203
RWRIL

ILLINOIS REGIONAL WEATHER ROUNDUP
NATIONAL WEATHER SERVICE CHICAGO/ROMEOVILLE IL
500 PM CDT MON MAY 30 2016

NOTE: "FAIR" INDICATES FEW OR NO CLOUDS BELOW 12,000 FEET WITH NO
SIGNIFICANT WEATHER AND/OR OBSTRUCTIONS TO VISIBILITY.

* THESE STATIONS ARE NOT UNDER NWS QUALITY CONTROL. THEY ALSO MAY NOT
  REPORT WEATHER SUCH AS PRECIPITATION OR FOG.

ILZ001-002-007-009-015-016-024-302300-
NORTHWEST ILLINOIS

CITY           SKY/WX    TMP DP  RH WIND       PRES   REMARKS
MOLINE         SUNNY     88  60  38 S8        29.95F HX  87
STERLING*      SUNNY     87  59  38 W9        29.96F HX  86
$$

ILZ003-004-008-010-011-017-018-302300-
NORTH CENTRAL ILLINOIS

CITY           SKY/WX    TMP DP  RH WIND       PRES   REMARKS
ROCKFORD       CLOUDY    87  51  28 NW7       29.99S HX  85
FREEPORT*      SUNNY     82  50  32 NW3       29.99F HX  81
ROCHELLE*      MOSUNNY   84  56  37 NW8       29.98S HX  83
$$

ILZ005-006-012>014-019>023-302300-
NORTHEAST ILLINOIS

CITY           SKY/WX    TMP DP  RH WIND       PRES   REMARKS
CHICAGO-OHARE  MOSUNNY   86  52  30 N7        29.95F HX  84
CHICAGO-MIDWAY MOSUNNY   83  57  41 E9        29.96S HX  82
AURORA         SUNNY     85  56  37 W5        29.97S HX  84
LANSING*       SUNNY     84  57  39 NE6       29.97S HX  83
WAUKEGAN       SUNNY     74  58  57 E8        29.97F
DUPAGE AIRPORT SUNNY     85  50  29 VRB3      29.96F HX  83
WHEELING       SUNNY     82  58  43 E8        29.97S HX  82
MORRIS*        MOSUNNY   88  54  31 CALM      29.94F HX  86
NORTHERLY ISL    N/A     70  58  65 E2          N/A
NORTHERLY ISL    N/A     70  58  65 E2          N/A
$$

LMZ740>746-302300-
SOUTHERN LAKE MICHIGAN

STATION/POSITION SKY/WX   TEMP    WIND        PRES    VSBY  WAVE
                          AIR SEA DIR/SP/G                  HT/PER
                          (F)     (DEG/KT/KT) (MB)    (MI)  (FT/S)
SOUTHERN BUOY              60 59  110/  4/  4 1015.6          0
WILMETTE HARBOR            63 58  160/  4/  6   N/A           1
HARRISON CRIB              69     150/  3/  5   N/A
BURNHAM HARBOR             69     130/  2/  3   N/A
CALUMET HARBOR             67      70/  6/  9 1014.8F
BURNS HARBOR               69      70/ 10/ 11 1015.6F
MICHIGAN CITY              66      30/  8/  9   N/A
MICHIGAN CITY 6N           66 63   60/  6/  6   N/A           1
ST. JOSEPH                 68 67   10/  4/  6   N/A           0
$$

ILZ025>027-034>036-040-047-049-050-058-095>099-302300-
WEST-CENTRAL ILLINOIS

CITY           SKY/WX    TMP DP  RH WIND       PRES   REMARKS
QUINCY         CLOUDY    83  64  52 S6        29.98F HX  84
MACOMB*        PTSUNNY   86  59  40 S8        30.00F HX  85
PITTSFIELD*    CLOUDY    84  64  50 S3        30.00F HX  85
$$

ILZ028>032-037-038-041>044-048-051>054-059>061-302300-
CENTRAL ILLINOIS

CITY           SKY/WX    TMP DP  RH WIND       PRES   REMARKS
BLOOMINGTON    CLOUDY    87  60  40 NW8       29.99F HX  86
DECATUR        CLOUDY    83  64  52 S8        29.99S HX  84
PEORIA         MOSUNNY   87  55  33 CALM      29.97F HX  85
LINCOLN*       MOSUNNY   87  60  38 CALM      29.97F HX  87
SPRINGFIELD    CLOUDY    87  61  41 NW5       29.98F HX  87
TAYLORVILLE    NOT AVBL
$$

ILZ033-039-045-046-055>057-062-063-302300-
EAST-CENTRAL ILLINOIS

CITY           SKY/WX    TMP DP  RH WIND       PRES   REMARKS
CHAMPAIGN      CLOUDY    87  55  33 S10       29.97F HX  85
MATTOON        MOSUNNY   77  69  76 CALM      29.99F
$$

ILZ079-100>102-302300-
SOUTHWEST ILLINOIS

CITY           SKY/WX    TMP DP  RH WIND       PRES   REMARKS
ALTON          PTSUNNY   82  61  47 SW6       29.98F HX  83
BELLEVILLE     CLOUDY    83  64  51 SE2       29.97F HX  85
CAHOKIA*       PTSUNNY   84  62  47 S6        29.98F HX  85
SPARTA*        MOSUNNY   83  63  49 SE3       30.01S HX  84
$$

ILZ064>066-069>071-074>076-080>082-084>086-088>090-092>094-302300-
SOUTH-CENTRAL ILLINOIS

CITY           SKY/WX    TMP DP  RH WIND       PRES   REMARKS
CARBONDALE     CLOUDY    85  58  39 CALM      29.99F HX  84
CAIRO*         MOSUNNY   86  60  41 E3        29.98F HX  85
EFFINGHAM*     PTSUNNY   84  62  46 CALM      30.00F HX  85
MARION         PTSUNNY   81  66  61 SE8       30.01S HX  83
MT. VERNON     CLOUDY    84  63  48 CALM      30.00S HX  85
SALEM*         PTSUNNY   87  61  41 E3        29.99F HX  87
$$

ILZ067-068-072-073-078-083-087-091-302300-
SOUTHEAST ILLINOIS

CITY           SKY/WX    TMP DP  RH WIND       PRES   REMARKS
LAWRENCEVILLE  SUNNY     87  56  34 CALM      29.99F HX  85
FLORA*         SUNNY     87  57  35 CALM      29.99F HX  86
HARRISBURG*    MOSUNNY   84  63  48 NE3       29.99F HX  85
ROBINSON*      SUNNY     85  60  42 NE8       29.99F HX  85
$$

ABBREVIATIONS USED IN REMARKS
   TC - TEMPERATURE IN CELSIUS
  WCI - WIND CHILL INDEX
   HX - HEAT INDEX
  VSB - VISIBILITY
$$





USA.gov is the U.S. government's official web portal to all federal, state and local government web resources and services.